ESPECIAL COVID-19 - Dados por Município

Graças a uma força-tarefa de 40 voluntários que, diariamente, compilam boletins epidemiológicos das 27 Secretarias Estaduais de Saúde, disponibilizamos uma base de dados com a série histórica de casos e óbitos confirmados por município. Embora essenciais para o planejamento de políticas de contenção do novo coronavírus, os dados municipais não têm sido divulgados pelo Ministério da Saúde. Ainda como parte desse esforço contínuo de fornecer dados úteis relacionados à pandemia, disponibilizamos outras bases estruturadas, como população dos municípios afetados, óbitos suspeitos registrados em cartório etc.

Panorama Nacional
info Boletins coletados
2.784
info Casos confirmados
497.816
info Óbitos confirmados
28.752 (5,78%)
info Municípios atingidos
4.051 (73%)
info População desses municípios
199M (95%)
info Municípios c/ óbitos
1.700 (42%)

Casos de COVID-19 por estado: Ceará

Panorama Estadual
info Boletins coletados
96
info Casos confirmados
47.822
info Óbitos confirmados
2.956 (6,18%)
info Municípios atingidos
182 (99%)
info População desses municípios
9M (100%)
info Municípios c/ óbitos
135 (74%)
Carregando   Carregando mapa...
Nota: casos importados não estão representados no mapa.
Data Município Confirmados Confirmados
por 100k hab.
Óbitos Letalidade Óbitos
por 100k hab.
30/05/2020 Abaiara 3 25,56 1 33,33% 8,52
30/05/2020 Acarape 71 475,58 3 4,23% 20,10
30/05/2020 Acaraú 484 772,66 13 2,69% 20,75
30/05/2020 Acopiara 74 136,36 2 2,70% 3,69
30/05/2020 Aiuaba 3 17,24 0 0,00% 0,00
30/05/2020 Alcântaras 95 811,00 1 1,05% 8,54
30/05/2020 Altaneira 1 13,18 0 0,00% 0,00
30/05/2020 Alto Santo 27 157,47 1 3,70% 5,83
30/05/2020 Amontada 209 480,99 5 2,39% 11,51
30/05/2020 Antonina do Norte 2 27,20 0 0,00% 0,00
30/05/2020 Apuiarés 55 376,71 6 10,91% 41,10
30/05/2020 Aquiraz 244 303,97 13 5,33% 16,20
30/05/2020 Aracati 249 334,02 9 3,61% 12,07
30/05/2020 Aracoiaba 150 566,70 1 0,67% 3,78
30/05/2020 Ararendá 2 18,29 1 50,00% 9,14
30/05/2020 Araripe 2 9,26 0 0,00% 0,00
30/05/2020 Aratuba 18 151,94 0 0,00% 0,00
30/05/2020 Arneiroz 19 242,35 0 0,00% 0,00
30/05/2020 Assaré 4 17,08 0 0,00% 0,00
30/05/2020 Aurora 6 24,34 1 16,67% 4,06
30/05/2020 Banabuiú 67 368,19 1 1,49% 5,50
30/05/2020 Barbalha 57 93,78 2 3,51% 3,29
30/05/2020 Barreira 72 321,07 7 9,72% 31,22
30/05/2020 Barro 4 17,64 0 0,00% 0,00
30/05/2020 Barroquinha 146 972,23 0 0,00% 0,00
30/05/2020 Baturité 62 173,43 8 12,90% 22,38
30/05/2020 Beberibe 91 169,86 11 12,09% 20,53
30/05/2020 Bela Cruz 298 914,36 6 2,01% 18,41
30/05/2020 Boa Viagem 40 73,43 8 20,00% 14,69
30/05/2020 Brejo Santo 24 48,51 3 12,50% 6,06
30/05/2020 Camocim 230 361,29 7 3,04% 11,00
30/05/2020 Campos Sales 44 160,43 0 0,00% 0,00
30/05/2020 Canindé 465 603,92 11 2,37% 14,29
30/05/2020 Capistrano 136 766,72 4 2,94% 22,55
30/05/2020 Caridade 53 235,06 7 13,21% 31,05
30/05/2020 Cariré 93 504,12 0 0,00% 0,00
30/05/2020 Caririaçu 12 44,50 2 16,67% 7,42
30/05/2020 Cariús 3 16,04 1 33,33% 5,35
30/05/2020 Carnaubal 29 164,72 0 0,00% 0,00
30/05/2020 Cascavel 201 280,17 14 6,97% 19,51
30/05/2020 Catarina 16 77,30 0 0,00% 0,00
30/05/2020 Catunda 10 96,69 0 0,00% 0,00
30/05/2020 Caucaia 1.659 459,05 80 4,82% 22,14
30/05/2020 Cedro 7 27,39 1 14,29% 3,91
30/05/2020 Chaval 63 482,06 3 4,76% 22,96
30/05/2020 Choró 84 621,26 2 2,38% 14,79
30/05/2020 Chorozinho 87 429,33 4 4,60% 19,74
30/05/2020 Coreaú 156 674,27 1 0,64% 4,32
30/05/2020 Crateús 168 223,78 5 2,98% 6,66
30/05/2020 Crato 53 40,11 0 0,00% 0,00
30/05/2020 Croatá 8 44,29 0 0,00% 0,00
30/05/2020 Cruz 167 672,65 5 2,99% 20,14
30/05/2020 Deputado Irapuan Pinheiro 4 41,56 0 0,00% 0,00
30/05/2020 Ererê 26 361,21 3 11,54% 41,68
30/05/2020 Eusébio 681 1.270,10 13 1,91% 24,25
30/05/2020 Farias Brito 47 241,65 3 6,38% 15,42
30/05/2020 Forquilha 48 198,20 2 4,17% 8,26
30/05/2020 Fortaleza 23.378 875,80 1.939 8,29% 72,64
30/05/2020 Fortim 36 218,45 0 0,00% 0,00
30/05/2020 Frecheirinha 38 270,04 3 7,89% 21,32
30/05/2020 General Sampaio 12 157,52 4 33,33% 52,51
30/05/2020 Graça 55 381,97 0 0,00% 0,00
30/05/2020 Granja 110 200,92 3 2,73% 5,48
30/05/2020 Groaíras 72 650,52 2 2,78% 18,07
30/05/2020 Guaiúba 72 276,24 9 12,50% 34,53
30/05/2020 Guaraciaba do Norte 58 142,71 3 5,17% 7,38
30/05/2020 Guaramiranga 10 192,57 0 0,00% 0,00
30/05/2020 Hidrolândia 15 75,08 2 13,33% 10,01
30/05/2020 Horizonte 298 442,55 15 5,03% 22,28
30/05/2020 Ibaretama 9 67,40 4 44,44% 29,96
30/05/2020 Ibiapina 35 140,02 0 0,00% 0,00
30/05/2020 Ibicuitinga 98 782,44 3 3,06% 23,95
30/05/2020 Icapuí 68 341,13 3 4,41% 15,05
30/05/2020 Icó 64 94,09 3 4,69% 4,41
30/05/2020 Iguatu 110 107,32 10 9,09% 9,76
30/05/2020 Independência 23 87,86 4 17,39% 15,28
30/05/2020 Ipaporanga 35 301,91 0 0,00% 0,00
30/05/2020 Ipaumirim 3 24,07 0 0,00% 0,00
30/05/2020 Ipu 25 59,57 2 8,00% 4,77
30/05/2020 Ipueiras 37 96,94 2 5,41% 5,24
30/05/2020 Iracema 10 69,94 1 10,00% 6,99
30/05/2020 Irauçuba 64 264,94 3 4,69% 12,42
30/05/2020 Itaiçaba 33 421,62 4 12,12% 51,11
30/05/2020 Itaitinga 211 555,56 17 8,06% 44,76
30/05/2020 Itapajé 270 512,58 7 2,59% 13,29
30/05/2020 Itapipoca 945 730,53 56 5,93% 43,29
30/05/2020 Itapiúna 64 314,00 3 4,69% 14,72
30/05/2020 Itarema 555 1.326,93 10 1,80% 23,91
30/05/2020 Itatira 188 868,48 4 2,13% 18,48
30/05/2020 Jaguaretama 34 187,20 1 2,94% 5,51
30/05/2020 Jaguaribara 30 263,13 1 3,33% 8,77
30/05/2020 Jaguaribe 119 343,12 6 5,04% 17,30
30/05/2020 Jaguaruana 70 207,68 2 2,86% 5,93
30/05/2020 Jardim 3 11,04 0 0,00% 0,00
30/05/2020 Jati 3 36,99 1 33,33% 12,33
30/05/2020 Jijoca de Jericoacoara 88 444,09 1 1,14% 5,05
30/05/2020 Juazeiro do Norte 241 87,89 12 4,98% 4,38
30/05/2020 Jucás 10 40,27 1 10,00% 4,03
30/05/2020 Lavras da Mangabeira 18 57,13 1 5,56% 3,17
30/05/2020 Limoeiro do Norte 260 436,68 5 1,92% 8,40
30/05/2020 Madalena 54 274,24 3 5,56% 15,24
30/05/2020 Maracanaú 1.467 643,74 106 7,23% 46,51
30/05/2020 Maranguape 553 428,76 46 8,32% 35,66
30/05/2020 Marco 60 219,29 0 0,00% 0,00
30/05/2020 Martinópole 5 44,51 0 0,00% 0,00
30/05/2020 Massapê 371 957,74 13 3,50% 33,56
30/05/2020 Mauriti 64 133,44 7 10,94% 14,59
30/05/2020 Meruoca 41 272,30 3 7,32% 19,92
30/05/2020 Milagres 19 69,06 0 0,00% 0,00
30/05/2020 Milhã 25 190,04 1 4,00% 7,60
30/05/2020 Miraíma 14 101,32 2 14,29% 14,47
30/05/2020 Missão Velha 41 115,84 0 0,00% 0,00
30/05/2020 Mombaça 54 123,30 1 1,85% 2,28
30/05/2020 Monsenhor Tabosa 43 249,51 3 6,98% 17,41
30/05/2020 Morada Nova 368 594,60 3 0,82% 4,85
30/05/2020 Moraújo 57 653,37 1 1,75% 11,46
30/05/2020 Morrinhos 115 510,34 4 3,48% 17,75
30/05/2020 Mucambo 103 708,54 1 0,97% 6,88
30/05/2020 Mulungu 19 175,55 0 0,00% 0,00
30/05/2020 Nova Olinda 8 51,40 0 0,00% 0,00
30/05/2020 Nova Russas 33 102,08 1 3,03% 3,09
30/05/2020 Novo Oriente 12 41,95 2 16,67% 6,99
30/05/2020 Ocara 114 443,53 6 5,26% 23,34
30/05/2020 Orós 40 186,68 0 0,00% 0,00
30/05/2020 Pacajus 204 282,54 11 5,39% 15,23
30/05/2020 Pacatuba 462 553,74 32 6,93% 38,35
30/05/2020 Pacoti 33 269,15 2 6,06% 16,31
30/05/2020 Pacujá 14 214,30 0 0,00% 0,00
30/05/2020 Palhano 11 117,20 1 9,09% 10,65
30/05/2020 Palmácia 63 472,90 3 4,76% 22,52
30/05/2020 Paracuru 155 441,90 10 6,45% 28,51
30/05/2020 Paraipaba 141 430,61 8 5,67% 24,43
30/05/2020 Parambu 46 145,93 6 13,04% 19,03
30/05/2020 Paramoti 20 163,59 1 5,00% 8,18
30/05/2020 Pedra Branca 46 106,34 4 8,70% 9,25
30/05/2020 Penaforte 4 44,07 1 25,00% 11,02
30/05/2020 Pentecoste 96 254,30 7 7,29% 18,54
30/05/2020 Pereiro 13 79,72 0 0,00% 0,00
30/05/2020 Pindoretama 101 491,08 8 7,92% 38,90
30/05/2020 Piquet Carneiro 3 17,69 0 0,00% 0,00
30/05/2020 Pires Ferreira 5 45,66 0 0,00% 0,00
30/05/2020 Poranga 11 89,17 0 0,00% 0,00
30/05/2020 Porteiras 2 13,34 1 50,00% 6,67
30/05/2020 Potengi 9 81,48 0 0,00% 0,00
30/05/2020 Potiretama 9 140,21 0 0,00% 0,00
30/05/2020 Quiterianópolis 40 189,72 2 5,00% 9,49
30/05/2020 Quixadá 622 709,01 20 3,22% 22,80
30/05/2020 Quixelô 6 37,09 0 0,00% 0,00
30/05/2020 Quixeramobim 266 328,06 13 4,89% 16,03
30/05/2020 Quixeré 46 207,68 3 6,52% 13,54
30/05/2020 Redenção 245 843,29 6 2,45% 20,65
30/05/2020 Reriutaba 25 135,20 4 16,00% 21,63
30/05/2020 Russas 176 225,08 8 4,55% 10,23
30/05/2020 Saboeiro 7 44,25 0 0,00% 0,00
30/05/2020 Salitre 3 18,12 1 33,33% 6,04
30/05/2020 Santana do Acaraú 29 89,36 8 27,59% 24,65
30/05/2020 Santana do Cariri 22 124,29 0 0,00% 0,00
30/05/2020 Santa Quitéria 176 402,72 8 4,55% 18,31
30/05/2020 São Benedito 17 35,49 0 0,00% 0,00
30/05/2020 São Gonçalo do Amarante 759 1.567,47 16 2,11% 33,04
30/05/2020 São João do Jaguaribe 32 418,57 0 0,00% 0,00
30/05/2020 São Luís do Curu 35 269,23 4 11,43% 30,77
30/05/2020 Senador Pompeu 23 90,21 0 0,00% 0,00
30/05/2020 Senador Sá 84 1.101,93 1 1,19% 13,12
30/05/2020 Sobral 2.132 1.020,41 68 3,19% 32,55
30/05/2020 Solonópole 44 240,12 1 2,27% 5,46
30/05/2020 Tabuleiro do Norte 122 397,43 3 2,46% 9,77
30/05/2020 Tamboril 22 83,81 1 4,55% 3,81
30/05/2020 Tarrafas 2 23,28 0 0,00% 0,00
30/05/2020 Tauá 172 292,22 6 3,49% 10,19
30/05/2020 Tejuçuoca 95 495,13 2 2,11% 10,42
30/05/2020 Tianguá 218 287,05 10 4,59% 13,17
30/05/2020 Trairi 162 289,71 11 6,79% 19,67
30/05/2020 Tururu 48 295,00 11 22,92% 67,60
30/05/2020 Ubajara 143 411,01 3 2,10% 8,62
30/05/2020 Umari 9 116,38 0 0,00% 0,00
30/05/2020 Umirim 82 413,62 13 15,85% 65,57
30/05/2020 Uruburetama 211 965,68 7 3,32% 32,04
30/05/2020 Uruoca 23 166,18 1 4,35% 7,23
30/05/2020 Varjota 30 162,87 2 6,67% 10,86
30/05/2020 Várzea Alegre 30 73,67 0 0,00% 0,00
30/05/2020 Viçosa do Ceará 214 351,46 7 3,27% 11,50

Baixar dados em CSV